Volver al catálogo

SL-8 R/B

ActivoPO
NORAD 24955·ROCKET BODY·🇷🇺 Russia

Lanzado Sep 23, 1997 desde Plesetsk Cosmodrome

Loading…

Próximos Pases (próximas 24 horas)

TLE

ActualizadoSource: Space-Track

Época: Sep 14, 2026, 17:01 UTC

1 24955U 97052C   26257.70954807  .00000185  00000-0  15802-3 0  9993
2 24955  82.9157 254.3890 0028926 334.2141  25.7575 13.81948915460779

Sigue SL-8 R/B en tiempo real con AllMySat

Download on the App Store